Retour au catalogue

IRIDIUM 131

ActifCommunicationsPO
NORAD 43079·PAYLOAD·🇺🇸 United States

Lancé Dec 23, 2017 depuis Vandenberg Space Force Base

Loading…

Prochains Passages (prochaines 24 heures)

TLE

FraisSource: CelesTrak SupGP

Époque: Sep 14, 2026, 20:41 UTC

1 43079C 17083K   26257.86215278  .00001671  00000+0  59738-3 0  2579
2 43079  86.3919 284.6924 0002353  94.5284   8.7546 14.34214788    14

Suivez IRIDIUM 131 en temps réel avec AllMySat

Download on the App Store